Tillbaka till svenska Fidonet
English   Information   Debug  
FILM   0/18
FNEWS_PUBLISH   4983
FN_SYSOP   42232
FN_SYSOP_OLD1   71952
FTP_FIDO   0/2
FTSC_PUBLIC   0/13976
FUNNY   0/4886
GENEALOGY.EUR   0/71
GET_INFO   105
GOLDED   0/408
HAM   8314/16719
HOLYSMOKE   0/6791
HOT_SITES   0/1
HTMLEDIT   0/71
HUB203   466
HUB_100   264
HUB_400   39
HUMOR   0/29
IC   572/2851
INTERNET   0/424
INTERUSER   0/3
IP_CONNECT   719
JAMNNTPD   0/233
JAMTLAND   0/47
KATTY_KORNER   0/41
LAN   0/16
LINUX-USER   0/19
LINUXHELP   0/1155
LINUX   0/22386
LINUX_BBS   0/957
mail   18.68
mail_fore_ok   249
MENSA   0/341
MODERATOR   0/102
MONTE   0/992
MOSCOW_OKLAHOMA   0/1245
MUFFIN   0/783
MUSIC   0/321
N203_STAT   938
N203_SYSCHAT   313
NET203   321
NET204   69
NET_DEV   0/10
NORD.ADMIN   0/101
NORD.CHAT   0/2572
NORD.FIDONET   189
NORD.HARDWARE   0/28
NORD.KULTUR   0/114
NORD.PROG   0/32
NORD.SOFTWARE   0/88
NORD.TEKNIK   0/58
NORD   0/453
OCCULT_CHAT   0/93
OS2BBS   0/787
OS2DOSBBS   0/580
OS2HW   0/42
OS2INET   0/37
OS2LAN   0/134
OS2PROG   0/36
OS2REXX   0/113
OS2USER-L   207
OS2   0/4831
OSDEBATE   0/18996
PASCAL   0/490
PERL   0/457
PHP   0/45
POINTS   0/405
POLITICS   0/29554
POL_INC   9158/14731
PSION   103
R20_ADMIN   1133
R20_AMATORRADIO   0/2
R20_BEST_OF_FIDONET   16
R20_CHAT   0/897
R20_DEPP   0/3
R20_DEV   400
R20_ECHO2   1890
R20_ECHOPRES   0/35
R20_ESTAT   0/719
R20_FIDONETPROG...
...RAM.MYPOINT
  0/2
R20_FIDONETPROGRAM   0/22
R20_FIDONET   0/248
R20_FILEFIND   0/24
R20_FILEFOUND   0/22
R20_HIFI   0/3
R20_INFO2   3783
R20_INTERNET   0/12940
R20_INTRESSE   0/60
R20_INTR_KOM   0/99
R20_KANDIDAT.CHAT   42
R20_KANDIDAT   28
R20_KOM_DEV   112
R20_KONTROLL   0/13360
R20_KORSET   0/18
R20_LOKALTRAFIK   0/24
R20_MODERATOR   1002/1852
R20_NC   76
R20_NET200   245
R20_NETWORK.OTH...
...ERNETS
  0/13
R20_OPERATIVSYS...
...TEM.LINUX
  0/44
R20_PROGRAMVAROR   0/1
R20_REC2NEC   534
R20_SFOSM   0/341
R20_SF   0/108
R20_SPRAK.ENGLISH   0/1
R20_SQUISH   107
R20_TEST   2
R20_WORST_OF_FIDONET   20
RAR   0/9
RA_MULTI   106
RA_UTIL   0/162
REGCON.EUR   0/2069
REGCON   0/13
SCIENCE   0/1206
SF   0/239
SHAREWARE_SUPPORT   0/5146
SHAREWRE   0/14
SIMPSONS   0/169
STATS_OLD1   1558/2539.065
STATS_OLD2   0/2530
STATS_OLD3   0/2395.095
STATS_OLD4   0/1692.25
SURVIVOR   0/495
SYSOPS_CORNER   0/3
SYSOP   0/84
TAGLINES   0/112
TEAMOS2   0/4530
TECH   0/2617
TEST.444   0/105
TRAPDOOR   0/19
TREK   0/755
TUB   0/290
UFO   0/40
UNIX   0/1316
USA_EURLINK   0/102
USR_MODEMS   0/1
VATICAN   0/2740
VIETNAM_VETS   0/14
VIRUS   0/378
VIRUS_INFO   0/201
VISUAL_BASIC   0/473
WHITEHOUSE   413/5187
WIN2000   0/101
WIN32   0/30
WIN95   616/4291
WIN95_OLD1   0/70272
WINDOWS   0/1517
WWB_SYSOP   0/419
WWB_TECH   478/810
ZCC-PUBLIC   0/1
ZEC   4

 
4DOS   0/134
ABORTION   0/7
ALASKA_CHAT   0/506
ALLFIX_FILE   0/1313
ALLFIX_FILE_OLD1   0/7997
ALT_DOS   0/152
AMATEUR_RADIO   0/1039
AMIGASALE   0/14
AMIGA   315/331
AMIGA_INT   0/1
AMIGA_PROG   0/20
AMIGA_SYSOP   0/26
ANIME   0/15
ARGUS   0/924
ASCII_ART   0/340
ASIAN_LINK   0/651
ASTRONOMY   0/417
AUDIO   0/92
AUTOMOBILE_RACING   0/105
BABYLON5   0/17862
BAG   135
BATPOWER   248/361
BBBS.ENGLISH   0/382
BBSLAW   0/109
BBS_ADS   0/5290
BBS_INTERNET   0/507
BIBLE   648/3563
BINKD   0/1119
BINKLEY   0/215
BLUEWAVE   856/2173
CABLE_MODEMS   0/25
CBM   0/46
CDRECORD   0/66
CDROM   0/20
CLASSIC_COMPUTER   0/378
COMICS   0/15
CONSPRCY   0/899
COOKING   42022
COOKING_OLD1   0/24719
COOKING_OLD2   0/40862
COOKING_OLD3   0/37489
COOKING_OLD4   23553/35496
COOKING_OLD5   9370
C_ECHO   0/189
C_PLUSPLUS   0/31
DIRTY_DOZEN   0/201
DOORGAMES   0/2333
DOS_INTERNET   0/196
duplikat   6102
ECHOLIST   15444/18295
EC_SUPPORT   185/318
ELECTRONICS   0/359
ELEKTRONIK.GER   1534
ENET.LINGUISTIC   0/13
ENET.POLITICS   0/4
ENET.SOFT   0/11701
ENET.SYSOP   34335
ENET.TALKS   0/32
ENGLISH_TUTOR   0/2000
EVOLUTION   344/1335
FDECHO   0/217
FDN_ANNOUNCE   6731/7068
FIDONEWS   25122
FIDONEWS_OLD1   0/49742
FIDONEWS_OLD2   0/35949
FIDONEWS_OLD3   0/30874
FIDONEWS_OLD4   0/37224
FIDO_SYSOP   12973
FIDO_UTIL   0/180
FILEFIND   0/209
FILEGATE   0/212
Möte HAM, 16719 texter
 lista första sista föregående nästa
Text 2303, 787 rader
Skriven 2008-05-02 03:00:24 av Amsat List (1:323/120.0)
Ärende: [keps]  orb08122.amsa
=============================
[keps]  orb08122.amsa

Return-Path: <keps-bounces@amsat.org>
X-Rcpt: craig.healy@chowda.com
X-UIDL: 1209709113.214

SB KEPS @ AMSAT  $ORB08122.O
Orbital Elements  08122.OSCAR

HR AMSAT ORBITAL ELEMENTS FOR OSCAR SATELLITES
FROM WA5QGD FORT WORTH,TX May 1, 2008
Send Subscribe/unsubscribe to KEPS at 
http://www.amsat.org/mailman/listinfo/keps
BID: ORB08122.O
TO ALL RADIO AMATEURS BT

Satellite: AO-07
Catalog number: 07530
Epoch time:      08122.76642736
Element set:     165
Inclination:      101.4692 deg
RA of node:       155.8093 deg
Eccentricity:    0.0011935
Arg of perigee:   354.0385 deg
Mean anomaly:     006.0534 deg
Mean motion:   12.53573868 rev/day
Decay rate:       -2.7e-07 rev/day^2
Epoch rev:           53116
Checksum:              292

Satellite: AO-10
Catalog number: 14129
Epoch time:      08122.62036453
Element set:     501
Inclination:      025.9330 deg
RA of node:       217.5751 deg
Eccentricity:    0.6000234
Arg of perigee:   120.0565 deg
Mean anomaly:     312.1904 deg
Mean motion:   02.05869508 rev/day
Decay rate:       -3.5e-07 rev/day^2
Epoch rev:           18714
Checksum:              254

Satellite: UO-11
Catalog number: 14781
Epoch time:      08122.86267266
Element set:     658
Inclination:      098.1576 deg
RA of node:       156.1958 deg
Eccentricity:    0.0008249
Arg of perigee:   218.0707 deg
Mean anomaly:     141.9949 deg
Mean motion:   14.79638226 rev/day
Decay rate:       1.57e-06 rev/day^2
Epoch rev:           29700
Checksum:              343

Satellite: RS-15
Catalog number: 23439
Epoch time:      08121.74106645
Element set:    0115
Inclination:      064.8170 deg
RA of node:       211.7704 deg
Eccentricity:    0.0148933
Arg of perigee:   131.9563 deg
Mean anomaly:     229.4163 deg
Mean motion:   11.27551810 rev/day
Decay rate:       -3.9e-07 rev/day^2
Epoch rev:           54961
Checksum:              290

Satellite: FO-29
Catalog number: 24278
Epoch time:      08121.93986294
Element set:    0784
Inclination:      098.5882 deg
RA of node:       044.4041 deg
Eccentricity:    0.0350775
Arg of perigee:   338.0279 deg
Mean anomaly:     020.6128 deg
Mean motion:   13.52937899 rev/day
Decay rate:       -5.0e-08 rev/day^2
Epoch rev:           57800
Checksum:              344

Satellite: SO-33
Catalog number: 25509
Epoch time:      08121.65882824
Element set:     187
Inclination:      031.4331 deg
RA of node:       225.0901 deg
Eccentricity:    0.0355031
Arg of perigee:   331.5902 deg
Mean anomaly:     026.5781 deg
Mean motion:   14.28212379 rev/day
Decay rate:       2.10e-06 rev/day^2
Epoch rev:           49681
Checksum:              281

Satellite: AO-40
Catalog number: 26609
Epoch time:      08121.03965490
Element set:      50
Inclination:      007.5599 deg
RA of node:       085.3238 deg
Eccentricity:    0.7914604
Arg of perigee:   076.3922 deg
Mean anomaly:     352.8845 deg
Mean motion:   01.25584746 rev/day
Decay rate:      -1.09e-06 rev/day^2
Epoch rev:            3443
Checksum:              316

Satellite: VO-52
Catalog number: 28650
Epoch time:      08122.39697029
Element set:     918
Inclination:      097.7917 deg
RA of node:       190.2850 deg
Eccentricity:    0.0026017
Arg of perigee:   294.4492 deg
Mean anomaly:     065.4003 deg
Mean motion:   14.81454503 rev/day
Decay rate:      -1.72e-06 rev/day^2
Epoch rev:           16167
Checksum:              314

Satellite: PO-63
Catalog number: 29712
Epoch time:      08122.71423325
Element set:     408
Inclination:      097.8773 deg
RA of node:       181.7675 deg
Eccentricity:    0.0014202
Arg of perigee:   167.7380 deg
Mean anomaly:     192.4162 deg
Mean motion:   14.80129717 rev/day
Decay rate:       7.78e-06 rev/day^2
Epoch rev:            7059
Checksum:              317

/EX
SB KEPS @ AMSAT  $ORB08122.D
Orbital Elements  08122.MICROS

HR AMSAT ORBITAL ELEMENTS FOR THE MICROSATS
FROM WA5QGD FORT WORTH,TX May 1, 2008
Send Subscribe/unsubscribe to KEPS at 
http://www.amsat.org/mailman/listinfo/keps
BID: ORB08122.D
TO ALL RADIO AMATEURS BT

Satellite: AO-16
Catalog number: 20439
Epoch time:      08121.55050501
Element set:    0310
Inclination:      098.2279 deg
RA of node:       104.0564 deg
Eccentricity:    0.0010642
Arg of perigee:   324.3861 deg
Mean anomaly:     035.6617 deg
Mean motion:   14.31791991 rev/day
Decay rate:        4.0e-07 rev/day^2
Epoch rev:           95410
Checksum:              266

Satellite: LO-19
Catalog number: 20442
Epoch time:      08121.95507230
Element set:    0237
Inclination:      098.1984 deg
RA of node:       113.1177 deg
Eccentricity:    0.0011380
Arg of perigee:   320.0487 deg
Mean anomaly:     039.9866 deg
Mean motion:   14.32030172 rev/day
Decay rate:       -6.7e-07 rev/day^2
Epoch rev:           95431
Checksum:              285

Satellite: AO-27
Catalog number: 22825
Epoch time:      08121.59566144
Element set:     957
Inclination:      098.3806 deg
RA of node:       083.4122 deg
Eccentricity:    0.0009210
Arg of perigee:   045.9170 deg
Mean anomaly:     314.2750 deg
Mean motion:   14.29237447 rev/day
Decay rate:        1.3e-07 rev/day^2
Epoch rev:           76097
Checksum:              302

Satellite: IO-26
Catalog number: 22826
Epoch time:      08121.65797515
Element set:    0662
Inclination:      098.3737 deg
RA of node:       084.4039 deg
Eccentricity:    0.0009753
Arg of perigee:   041.6550 deg
Mean anomaly:     318.5372 deg
Mean motion:   14.29485666 rev/day
Decay rate:       -5.0e-08 rev/day^2
Epoch rev:           76107
Checksum:              328

